(404) Arsinoe
ephemeris date magn radius delta ra dec elong phase
Today2 Jul 202513.92.697 AU2.121 AU23h29m-18°58'113.8°20.2°
Opposition30 Aug 202513.22.812 AU1.841 AU23h09m-27°00'160.2°7.0°
(404) Arsinoe - 2025-07-02
astro.vanbuitenen.nl


 
-1 year
-1 month
-1 day
Now
+1 day
+1 month
+1 year

The interactive orbit chart above shows the body's path through the solar system and its position at the given date. Green and blue lines are shown perpendicular to the ecliptic plane: Green if the path is above the ecliptic plane, blue if it is below. (Left-click and drag to rotate the view; Right-click and drag to move the view; Use scroll wheel to zoom in our out.)

The orbital elements of Arsinoe are:

            e (Eccentricity)                : 0.2015119
            a (Semimajor axis)              : 2.5923356
            i (Inclination)                 : 14.09832
            Ω (Longitude of ascending node) : 92.46876
            ω (Argument of perihelion)      : 120.55674
            M (Mean anomaly)                : 76.59024
            Epoch                           : 2025 May 05

            L (Longitude of perihelion)     : 33.79825
            B (Latitude of perihelion)      : 12.10822
            P (Orbital period in years)     : 4.17            
        

The light curve chart below shows the estimated development of the minor planet's magnitude.


The all-sky chart below shows the path of the minor planet over the same period as the light curve. The current position is marked yellow.





The following chart shows the path of the minor planet in the next few days. The field of view is optimized for (~10x50) binoculars and finderscopes. A more printer-friendly version of the same chart can be found below.




Ephemerides:
Date       Time       RA (2000)    DEC (2000)    delta   radius  elong  phase   PA    magn
2025-07-02 00:00 UT   23 29 30.1   -18 58 32     2.121    2.697  113.8   20.2   252   13.9 
2025-07-02 02:54 UT   23 29 32.8   -18 59 11     2.120    2.698  113.9   20.1   253   13.9 
2025-07-03 00:00 UT   23 29 52.0   -19 03 58     2.112    2.699  114.7   20.0   253   13.9 
2025-07-04 00:00 UT   23 30 12.6   -19 09 34     2.102    2.701  115.6   19.8   253   13.9 
2025-07-05 00:00 UT   23 30 31.8   -19 15 20     2.093    2.703  116.4   19.7   253   13.9 
2025-07-06 00:00 UT   23 30 49.5   -19 21 16     2.084    2.705  117.3   19.5   254   13.9 
2025-07-07 00:00 UT   23 31 05.8   -19 27 21     2.075    2.707  118.2   19.3   254   13.8 
2025-07-08 00:00 UT   23 31 20.7   -19 33 36     2.066    2.709  119.1   19.1   255   13.8 
2025-07-09 00:00 UT   23 31 34.1   -19 39 60     2.057    2.711  120.0   19.0   255   13.8 
2025-07-10 00:00 UT   23 31 46.0   -19 46 34     2.048    2.713  120.8   18.8   255   13.8 
2025-07-11 00:00 UT   23 31 56.4   -19 53 16     2.039    2.715  121.7   18.6   256   13.8 
2025-07-12 00:00 UT   23 32 05.3   -20 00 08     2.031    2.717  122.6   18.4   256   13.8 
2025-07-13 00:00 UT   23 32 12.7   -20 07 10     2.022    2.719  123.5   18.2   257   13.8 
2025-07-14 00:00 UT   23 32 18.6   -20 14 19     2.014    2.721  124.4   17.9   257   13.7 
2025-07-15 00:00 UT   23 32 23.0   -20 21 38     2.006    2.723  125.4   17.7   257   13.7 
2025-07-16 00:00 UT   23 32 25.8   -20 29 05     1.998    2.725  126.3   17.5   258   13.7 
2025-07-17 00:00 UT   23 32 27.0   -20 36 41     1.990    2.727  127.2   17.3   258   13.7 
2025-07-18 00:00 UT   23 32 26.7   -20 44 24     1.982    2.729  128.1   17.0   259   13.7 
2025-07-19 00:00 UT   23 32 24.9   -20 52 16     1.975    2.731  129.0   16.8   259   13.7 
2025-07-20 00:00 UT   23 32 21.4   -21 00 16     1.967    2.733  129.9   16.6   260   13.7 
2025-07-21 00:00 UT   23 32 16.4   -21 08 23     1.960    2.735  130.9   16.3   261   13.6 
2025-07-22 00:00 UT   23 32 09.7   -21 16 37     1.953    2.737  131.8   16.1   261   13.6 
2025-07-23 00:00 UT   23 32 01.5   -21 24 58     1.946    2.739  132.7   15.8   262   13.6 
2025-07-24 00:00 UT   23 31 51.7   -21 33 25     1.939    2.741  133.7   15.5   263   13.6 
2025-07-25 00:00 UT   23 31 40.2   -21 41 59     1.933    2.743  134.6   15.3   263   13.6 
2025-07-26 00:00 UT   23 31 27.2   -21 50 39     1.926    2.745  135.5   15.0   264   13.6 
2025-07-27 00:00 UT   23 31 12.6   -21 59 24     1.920    2.747  136.5   14.8   265   13.6 
2025-07-28 00:00 UT   23 30 56.5   -22 08 14     1.914    2.749  137.4   14.5   266   13.5 
2025-07-29 00:00 UT   23 30 38.7   -22 17 09     1.908    2.751  138.3   14.2   266   13.5 
2025-07-30 00:00 UT   23 30 19.4   -22 26 09     1.903    2.753  139.3   13.9   267   13.5 
2025-07-31 00:00 UT   23 29 58.6   -22 35 12     1.897    2.755  140.2   13.6   268   13.5 
2025-08-01 00:00 UT   23 29 36.2   -22 44 19     1.892    2.757  141.1   13.4   269   13.5 


    Terminology:
            
    delta:  distance between minor planet and earth in AU
    radius: distance between minor planet and sun in AU
    magn:   magnitude (brightness) estimate    
    ra:     right ascension in hours (24h = 360deg)
    dec:    declination in degrees
    elong:  elongation in degrees (angle sun-earth-minor planet)    
    phase:  phase angle in degrees (angle sun-minor planet-earth)        
    AU:     Astronomical Unit (mean distance between earth and sun: 149597870.7 km
    

Orbital elements provided by the MPC (Minor Planet Center).
Calculations by a modified version of AAPlus, a C# implementation of the AA+ project by PJ Naughter from the algorithms presented in the book "Astronomical Algorithms" by Jean Meeus.
NGC2000 dso catalog and star labels from VizieR as provided by the Strasbourg astronomical Data Center.
Tycho2 catalog from the ESO archive.